TimeCDT,TemperatureF,Dew PointF,Humidity,Sea Level PressureIn,VisibilityMPH,Wind Direction,Wind SpeedMPH,Gust SpeedMPH,PrecipitationIn,Events,Conditions,WindDirDegrees,DateUTC
12:15 AM,60.8,59.0,94,30.11,10.0,Calm,Calm,-,N/A,,Clear,0,2012-10-04 05:15:00
12:35 AM,60.8,59.0,94,30.11,10.0,Calm,Calm,-,N/A,,Clear,0,2012-10-04 05:35:00
12:55 AM,59.0,59.0,100,30.11,10.0,Calm,Calm,-,N/A,,Clear,0,2012-10-04 05:55:00
1:15 AM,59.0,57.2,94,30.11,7.0,Calm,Calm,-,N/A,,Clear,0,2012-10-04 06:15:00
1:35 AM,59.0,59.0,100,30.12,7.0,Calm,Calm,-,N/A,,Clear,0,2012-10-04 06:35:00
2:15 AM,57.2,57.2,100,30.12,10.0,Calm,Calm,-,N/A,,Clear,0,2012-10-04 07:15:00
2:35 AM,57.2,57.2,100,30.13,7.0,Calm,Calm,-,N/A,,Clear,0,2012-10-04 07:35:00
2:55 AM,55.4,55.4,100,30.13,7.0,Calm,Calm,-,N/A,,Clear,0,2012-10-04 07:55:00
3:15 AM,57.2,57.2,100,30.12,7.0,Calm,Calm,-,N/A,,Clear,0,2012-10-04 08:15:00
3:35 AM,55.4,55.4,100,30.12,5.0,Calm,Calm,-,N/A,,Clear,0,2012-10-04 08:35:00
3:55 AM,55.4,55.4,100,30.12,7.0,Calm,Calm,-,N/A,,Clear,0,2012-10-04 08:55:00
4:15 AM,55.4,55.4,100,30.13,7.0,Calm,Calm,-,N/A,,Clear,0,2012-10-04 09:15:00
4:35 AM,55.4,55.4,100,30.13,5.0,Calm,Calm,-,N/A,,Clear,0,2012-10-04 09:35:00
4:55 AM,55.4,55.4,100,30.13,4.0,Calm,Calm,-,N/A,,Clear,0,2012-10-04 09:55:00
5:15 AM,55.4,55.4,100,30.14,5.0,Calm,Calm,-,N/A,,Clear,0,2012-10-04 10:15:00
5:35 AM,55.4,55.4,100,30.15,4.0,Calm,Calm,-,N/A,,Clear,0,2012-10-04 10:35:00
5:55 AM,53.6,53.6,100,30.16,4.0,Calm,Calm,-,N/A,,Clear,0,2012-10-04 10:55:00
6:15 AM,53.6,53.6,100,30.16,4.0,Calm,Calm,-,N/A,,Clear,0,2012-10-04 11:15:00
6:35 AM,53.6,53.6,100,30.17,5.0,Calm,Calm,-,N/A,,Clear,0,2012-10-04 11:35:00
6:55 AM,53.6,53.6,100,30.18,7.0,Calm,Calm,-,N/A,,Clear,0,2012-10-04 11:55:00
7:15 AM,53.6,53.6,100,30.18,4.0,Calm,Calm,-,N/A,,Clear,0,2012-10-04 12:15:00
7:35 AM,53.6,53.6,100,30.18,3.0,Calm,Calm,-,N/A,,Clear,0,2012-10-04 12:35:00
7:55 AM,55.4,55.4,100,30.19,4.0,Calm,Calm,-,N/A,,Clear,0,2012-10-04 12:55:00
8:15 AM,57.2,57.2,100,30.19,7.0,Calm,Calm,-,N/A,,Clear,0,2012-10-04 13:15:00
8:35 AM,59.0,59.0,100,30.20,10.0,Calm,Calm,-,N/A,,Clear,0,2012-10-04 13:35:00
8:55 AM,60.8,60.8,100,30.21,10.0,Calm,Calm,-,N/A,,Clear,0,2012-10-04 13:55:00
9:15 AM,62.6,60.8,94,30.22,10.0,Calm,Calm,-,N/A,,Clear,0,2012-10-04 14:15:00
9:35 AM,64.4,60.8,88,30.22,10.0,Calm,Calm,-,N/A,,Clear,0,2012-10-04 14:35:00
9:55 AM,66.2,60.8,83,30.23,10.0,Calm,Calm,-,N/A,,Clear,0,2012-10-04 14:55:00
10:15 AM,68.0,59.0,73,30.23,10.0,Calm,Calm,-,N/A,,Clear,0,2012-10-04 15:15:00
10:35 AM,71.6,59.0,64,30.22,10.0,Calm,Calm,-,N/A,,Clear,0,2012-10-04 15:35:00
11:15 AM,77.0,59.0,54,30.22,10.0,Calm,Calm,-,N/A,,Clear,0,2012-10-04 16:15:00
11:35 AM,78.8,55.4,44,30.22,10.0,SW,5.8,-,N/A,,Clear,220,2012-10-04 16:35:00
11:55 AM,78.8,55.4,44,30.22,10.0,South,6.9,-,N/A,,Clear,190,2012-10-04 16:55:00
12:15 PM,80.6,57.2,45,30.21,10.0,SSW,6.9,-,N/A,,Clear,200,2012-10-04 17:15:00
12:35 PM,80.6,57.2,45,30.21,10.0,South,6.9,-,N/A,,Clear,190,2012-10-04 17:35:00
12:55 PM,80.6,55.4,42,30.20,10.0,SSE,6.9,-,N/A,,Clear,160,2012-10-04 17:55:00
1:15 PM,80.6,55.4,42,30.19,10.0,SW,5.8,-,N/A,,Clear,230,2012-10-04 18:15:00
1:35 PM,80.6,55.4,42,30.18,10.0,South,4.6,-,N/A,,Clear,170,2012-10-04 18:35:00
1:55 PM,82.4,55.4,39,30.17,10.0,South,9.2,-,N/A,,Clear,180,2012-10-04 18:55:00
2:15 PM,82.4,53.6,37,30.16,10.0,SSE,8.1,-,N/A,,Clear,150,2012-10-04 19:15:00
2:35 PM,82.4,53.6,37,30.15,10.0,SSE,4.6,-,N/A,,Clear,150,2012-10-04 19:35:00
2:55 PM,82.4,53.6,37,30.14,10.0,SE,3.5,-,N/A,,Clear,130,2012-10-04 19:55:00
3:15 PM,84.2,53.6,35,30.14,10.0,South,5.8,-,N/A,,Clear,190,2012-10-04 20:15:00
3:35 PM,84.2,53.6,35,30.14,10.0,SE,8.1,-,N/A,,Clear,140,2012-10-04 20:35:00
3:55 PM,82.4,51.8,35,30.13,10.0,South,4.6,-,N/A,,Clear,170,2012-10-04 20:55:00
4:15 PM,84.2,53.6,35,30.13,10.0,Calm,Calm,-,N/A,,Clear,0,2012-10-04 21:15:00
4:35 PM,84.2,53.6,35,30.12,10.0,South,4.6,-,N/A,,Clear,170,2012-10-04 21:35:00
5:15 PM,82.4,53.6,37,30.12,10.0,Calm,Calm,-,N/A,,Clear,0,2012-10-04 22:15:00
5:35 PM,82.4,53.6,37,30.12,10.0,SSE,4.6,-,N/A,,Clear,160,2012-10-04 22:35:00
5:55 PM,82.4,51.8,35,30.12,10.0,SSE,3.5,-,N/A,,Clear,150,2012-10-04 22:55:00
6:15 PM,80.6,51.8,37,30.13,10.0,Calm,Calm,-,N/A,,Clear,0,2012-10-04 23:15:00
6:35 PM,78.8,51.8,39,30.13,10.0,Calm,Calm,-,N/A,,Clear,0,2012-10-04 23:35:00
6:55 PM,77.0,53.6,44,30.13,10.0,Calm,Calm,-,N/A,,Clear,0,2012-10-04 23:55:00
7:15 PM,69.8,55.4,60,30.14,10.0,Calm,Calm,-,N/A,,Clear,0,2012-10-05 00:15:00
7:55 PM,69.8,60.8,73,30.14,10.0,Calm,Calm,-,N/A,,Overcast,0,2012-10-05 00:55:00
8:15 PM,68.0,59.0,73,30.14,10.0,Calm,Calm,-,N/A,,Scattered Clouds,0,2012-10-05 01:15:00
8:35 PM,68.0,59.0,73,30.15,10.0,Calm,Calm,-,N/A,,Clear,0,2012-10-05 01:35:00
9:15 PM,66.2,57.2,73,30.15,10.0,Calm,Calm,-,N/A,,Mostly Cloudy,0,2012-10-05 02:15:00
9:35 PM,64.4,60.8,88,30.16,10.0,Calm,Calm,-,N/A,,Overcast,0,2012-10-05 02:35:00
10:15 PM,68.0,59.0,73,30.17,10.0,Calm,Calm,-,N/A,,Overcast,0,2012-10-05 03:15:00
10:35 PM,66.2,59.0,78,30.17,10.0,Calm,Calm,-,N/A,,Overcast,0,2012-10-05 03:35:00
10:55 PM,64.4,60.8,88,30.17,10.0,Calm,Calm,-,N/A,,Scattered Clouds,0,2012-10-05 03:55:00
11:15 PM,64.4,60.8,88,30.16,10.0,Calm,Calm,-,N/A,,Clear,0,2012-10-05 04:15:00
11:35 PM,64.4,60.8,88,30.15,10.0,Calm,Calm,-,N/A,,Clear,0,2012-10-05 04:35:00
11:55 PM,64.4,60.8,88,30.15,10.0,Calm,Calm,-,N/A,,Clear,0,2012-10-05 04:55:00